GW1551 Weather Reports


time (UTC)temp
C
wind
direction
speed
KPH
gust
KPH
rain 1hr
cm
rain 24hr
cm
rain mn
cm
humidity
%
barometer
mb
20260504175035 26 190 4.8 14.5 0.00 0.00 0.00 28 1013.0
20260504174017 26 189 4.8 16.1 0.00 0.00 0.00 28 1013.2
20260504173017 25 169 4.8 12.9 0.00 0.00 0.00 28 1013.3
20260504172016 25 234 4.8 12.9 0.00 0.00 0.00 29 1013.4
20260504171038 25 158 4.8 16.1 0.00 0.00 0.00 29 1013.5
20260504151016 17 165 3.2 6.4 0.00 0.00 0.00 49 1014.8
20260504141018 15 116 3.2 6.4 0.00 0.00 0.00 48 1015.2
20260504100139 10 85 1.6 3.2 0.00 0.00 0.00 59 1015.7
20260504081039 10 0.0 0.0 0.00 0.00 0.00 59 1016.1
20260504050018 8 0.0 0.0 0.00 0.00 0.00 64 1016.2
20260504045018 8 0.0 0.0 0.00 0.00 0.00 64 1016.2
20260504044017 8 0.0 0.0 0.00 0.00 0.00 64 1016.2
20260504043057 8 0.0 0.0 0.00 0.00 0.00 63 1016.1
20260504042017 8 0.0 0.0 0.00 0.00 0.00 63 1016.0
20260504041017 8 0.0 0.0 0.00 0.00 0.00 62 1015.9
20260504040016 8 0.0 0.0 0.00 0.00 0.00 60 1015.9
20260504035016 9 0.0 0.0 0.00 0.00 0.00 59 1016.1
20260504034016 9 0.0 0.0 0.00 0.00 0.00 58 1016.0
20260504033037 9 0.0 0.0 0.00 0.00 0.00 57 1015.9
20260504032037 10 0.0 0.0 0.00 0.00 0.00 56 1015.9
20260504031017 10 0.0 0.0 0.00 0.00 0.00 55 1015.8
20260504030016 10 0.0 0.0 0.00 0.00 0.00 52 1015.7
20260504025017 10 0.0 0.0 0.00 0.00 0.00 51 1015.6
20260504024016 10 0.0 0.0 0.00 0.00 0.00 49 1015.6
20260504023016 11 0.0 0.0 0.00 0.00 0.00 49 1015.6
20260504022017 11 0.0 0.0 0.00 0.00 0.00 48 1015.6
20260504021016 11 0.0 0.0 0.00 0.00 0.00 47 1015.5
20260504020018 11 0.0 0.0 0.00 0.00 0.00 44 1015.5
20260504015018 12 0.0 0.0 0.00 0.00 0.00 44 1015.4
20260504014018 12 0.0 0.0 0.00 0.00 0.00 43 1015.3
20260504013016 12 0.0 0.0 0.00 0.00 0.00 41 1015.3
20260504012018 13 0.0 0.0 0.00 0.00 0.00 41 1015.2
20260504011018 13 0.0 0.0 0.00 0.00 0.00 39 1015.1
20260504010016 14 0.0 0.0 0.00 0.00 0.00 37 1015.1
20260504005038 14 0.0 0.0 0.00 0.00 0.00 36 1015.1
20260504004018 15 0.0 0.0 0.00 0.00 0.00 34 1015.1
20260504003018 15 0 0.0 1.6 0.00 0.00 0.00 32 1015.0
20260504002017 15 195 1.6 4.8 0.00 0.00 0.00 30 1015.0
20260504001016 16 201 0.0 3.2 0.00 0.00 0.00 30 1014.9
20260504000015 16 232 0.0 1.6 0.00 0.00 0.00 29 1014.8
20260503235017 16 207 1.6 3.2 0.00 0.00 0.00 29 1014.8
20260503234019 16 199 1.6 4.8 0.00 0.00 0.00 28 1014.7
20260503233017 16 257 1.6 4.8 0.00 0.00 0.00 27 1014.6
20260503232017 17 242 1.6 4.8 0.00 0.00 0.00 27 1014.6
20260503231017 17 251 1.6 4.8 0.00 0.00 0.00 27 1014.6
20260503230017 17 261 1.6 8.0 0.00 0.00 0.00 27 1014.6
20260503225016 17 205 3.2 14.5 0.00 0.00 0.00 26 1014.7
20260503224016 18 235 3.2 8.0 0.00 0.00 0.00 26 1014.7
20260503223016 18 205 3.2 9.7 0.00 0.00 0.00 26 1014.7
20260503222016 18 218 4.8 9.7 0.00 0.00 0.00 25 1014.7
20260503221018 18 309 1.6 6.4 0.00 0.00 0.00 26 1014.8
20260503220018 19 254 1.6 8.0 0.00 0.00 0.00 26 1014.9
20260503215017 19 289 3.2 9.7 0.00 0.00 0.00 25 1014.9
20260503214017 19 254 4.8 12.9 0.00 0.00 0.00 25 1014.9
20260503213016 19 295 1.6 6.4 0.00 0.00 0.00 26 1014.9
20260503212016 19 234 4.8 14.5 0.00 0.00 0.00 26 1014.9
20260503211017 19 260 3.2 9.7 0.00 0.00 0.00 25 1014.9
20260503210016 19 323 3.2 12.9 0.00 0.00 0.00 26 1014.9
20260503205016 19 242 3.2 11.3 0.00 0.00 0.00 26 1015.0
20260503204016 19 208 3.2 17.7 0.00 0.00 0.00 26 1015.1
20260503203016 20 195 6.4 16.1 0.00 0.00 0.00 24 1015.1
20260503202016 20 232 6.4 20.9 0.00 0.00 0.00 24 1015.3
20260503201016 20 311 6.4 22.5 0.00 0.00 0.00 24 1015.5
20260503200016 20 247 3.2 8.0 0.00 0.00 0.00 26 1015.7
20260503195016 20 279 3.2 8.0 0.00 0.00 0.00 26 1015.8
20260503194018 20 247 4.8 17.7 0.00 0.00 0.00 26 1015.9
20260503193018 19 347 3.2 12.9 0.00 0.00 0.00 27 1016.0
20260503192017 19 291 4.8 14.5 0.00 0.00 0.00 26 1016.2
20260503191058 20 229 4.8 14.5 0.00 0.00 0.00 27 1016.5
20260503190017 19 329 3.2 12.9 0.00 0.00 0.00 29 1016.6
20260503185017 19 356 3.2 16.1 0.00 0.00 0.00 28 1016.6
20260503184017 18 249 3.2 6.4 0.00 0.00 0.00 28 1016.7
20260503183016 18 229 6.4 19.3 0.00 0.00 0.00 28 1017.0
20260503182017 18 321 3.2 9.7 0.00 0.00 0.00 31 1017.0
20260503181037 17 247 3.2 12.9 0.00 0.00 0.00 29 1017.0
20260503180016 17 324 4.8 16.1 0.00 0.00 0.00 30 1017.0